Terminal Aerodrome Forecast
Issued by NWS Blacksburg, VA

Current Version | Previous Version | Graphics & Text | Print | Product List | Glossary On
Versions: 1 2 3 4 5 6 7 8 9 10 11 12 13 14 15 16 17 18 19 20 21 22 23 24 25 26 27 28 29 30 31 32 33 34 35 36 37 38 39 40 41 42 43
000
FTUS41 KRNK 160155 AAA
TAFBLF
TAF AMD
KBLF 160155Z 1602/1624 12010G18KT P6SM BKN022 OVC070
     FM160400 13010G16KT P6SM SCT025 OVC060
     FM161500 12007KT P6SM -SHRA BKN020
     FM162200 13009KT 6SM -SHRA OVC007=

USA.gov is the U.S. government's official web portal to all federal, state and local government web resources and services.